CAPE
346 993 1972 1763 1046 1425 1485 1725 1977 1520 706 1464 1271 1148 875 835 1202 1004 828 548 868 382 122 56 203 498 464 307 71 77 114 141 158 341 565 305 188 204 286 223 278 9 267
368 881 1889 1635 1359 1215 1718 2066 1688 1651 1626 1703 1402 1122 644 681 1032 904 570 369 437 195 66 17 9 322 470 532 340 219 205 225 249 398 362 376 394 311 221 117 296 100 309
235 434 993 1450 1648 1519 1956 2114 1860 1629 1679 1500 1373 1163 555 454 595 622 670 793 898 355 214 15 6 34 249 392 382 280 224 174 264 411 215 149 230 442 308 473 351 267 266
21 539 777 1637 1737 1675 1701 1908 1738 1652 1590 1392 1128 1208 410 595 647 996 955 676 761 743 541 385 120 13 73 184 180 150 145 134 147 92 43 161 213 445 428 240 178 97 64
0 64 662 1787 1788 1853 1622 1470 1983 1881 1792 1623 1201 1188 1138 1271 1159 975 845 749 945 1027 849 320 122 126 0 70 118 138 112 55 33 30 46 85 119 282 263 108 28 8 6
0 0 35 1701 1911 1832 1677 1802 1839 1898 1840 1687 1481 1446 1411 1577 1188 909 619 704 658 558 471 175 112 30 0 65 133 49 30 42 38 42 42 71 50 177 113 19 3 2 0
0 0 0 1747 1532 1610 1746 1671 1820 1872 1790 1738 1628 1695 1687 1147 965 628 309 402 327 282 84 19 9 2 0 81 108 41 11 31 10 19 21 0 8 49 26 10 5 0 1
0 0 0 249 1526 1388 1628 1487 1644 1658 1647 1584 1670 1246 1099 1048 668 295 107 67 6 0 2 5 3 3 15 59 146 18 31 19 27 21 16 11 51 22 7 5 4 3 8
0 0 0 30 695 994 1322 1253 1297 1289 1296 1466 1073 990 834 755 582 161 34 39 0 1 2 4 4 4 174 386 30 4 40 39 36 25 3 3 19 6 6 3 6 17 38
0 0 0 0 628 647 710 831 716 1017 1045 944 692 507 380 157 125 102 18 3 6 17 21 15 15 114 114 33 46 40 43 23 25 9 11 0 4 10 10 10 25 47 52
0 0 0 0 47 592 499 609 589 659 802 613 455 353 148 13 2 0 0 3 14 21 27 24 82 105 48 32 26 31 35 10 8 13 7 4 3 8 15 14 47 66 51
0 0 0 0 0 252 352 408 635 547 606 534 332 233 96 1 0 0 0 0 16 31 54 46 52 45 4 10 20 29 18 3 4 0 0 4 8 12 12 31 47 48 43
0 0 0 0 0 0 194 320 475 519 531 524 319 247 112 0 0 0 0 0 0 33 9 21 23 6 0 6 20 20 5 2 1 0 8 18 16 15 23 72 45 35 46
0 0 0 0 0 0 0 31 188 485 552 486 385 237 49 2 0 0 0 0 5 6 17 23 1 0 0 11 24 4 5 4 0 0 6 3 26 27 47 57 36 35 37
0 0 0 0 0 0 0 10 126 156 444 196 355 213 94 23 5 0 0 0 2 14 16 4 10 0 14 23 5 5 5 2 0 0 0 4 30 34 22 27 32 35 41
0 0 0 0 0 0 0 0 33 133 50 22 208 76 100 34 21 0 0 0 3 10 6 3 6 0 18 1 0 5 2 0 0 0 0 1 12 30 20 14 14 12 20
0 10 0 0 0 0 0 0 0 4 61 15 39 85 90 21 125 0 0 0 2 11 9 3 11 18 6 0 0 2 2 0 0 0 0 2 3 21 12 19 17 15 17
0 26 36 28 15 0 0 0 0 0 0 0 0 9 68 22 27 0 0 0 2 1 17 8 5 5 3 0 0 0 0 0 0 0 0 2 2 5 6 27 20 7 5
0 32 69 121 90 19 0 0 0 0 1 0 0 3 26 13 47 0 0 0 6 6 2 8 1 4 3 3 4 2 0 0 0 0 0 0 0 0 0 0 0 9 16
0 66 175 217 137 14 0 0 0 3 5 0 0 14 18 31 58 5 0 0 1 2 7 7 0 0 0 1 2 0 0 0 0 0 0 0 0 0 0 0 0 0 0
47 202 191 172 61 2 0 0 7 28 13 0 0 18 8 50 20 24 0 0 7 3 3 0 0 0 1 0 0 0 0 0 0 0 0 0 0 0 0 0 0 0 0
77 171 77 82 46 51 0 0 2 15 1 8 0 0 16 16 44 30 1 0 1 1 5 0 0 0 0 0 0 0 0 0 0 0 0 0 0 0 0 0 0 0 0
23 43 132 121 85 92 9 4 12 2 1 1 0 0 0 18 6 16 0 0 4 0 0 0 0 0 0 0 0 0 0 0 0 0 0 0 0 0 0 0 0 0 0
83 27 84 40 19 10 14 4 15 23 2 5 1 12 0 7 5 24 0 0 0 0 0 0 0 0 0 0 0 0 0 0 0 0 0 0 0 0 0 0 0 0 0
120 24 4 0 0 0 3 0 16 16 0 33 3 0 0 4 6 0 0 0 0 0 0 0 0 0 0 0 0 0 0 0 0 0 0 0 0 0 0 0 0 0 0
103 23 36 0 0 0 0 0 16 7 1 2 0 0 0 0 6 14 0 0 0 0 0 0 0 0 0 0 0 0 0 0 0 0 0 0 0 0 0 0 0 0 0
CIN
-179 -59 -3 -1 -17 -1 -2 -0 -0 -1 -17 -0 -0 -0 -2 -4 -0 -0 -0 -1 -0 -24 -107 -161 -97 -29 -48 -96 -214 -222 -207 -197 -193 -113 -51 -119 -162 -150 -124 -149 -120 -286 -131
-124 -66 -4 -1 -4 -3 -0 -0 -0 -1 -1 -0 -0 -0 -2 -1 -0 -0 -0 -10 -12 -69 -151 -232 -24 -74 -53 -52 -96 -145 -162 -166 -162 -117 -121 -104 -92 -131 -158 -202 -121 -245 -111
-182 -129 -37 -10 -3 -1 -0 -0 -0 -1 -1 -0 -1 -0 -1 -7 -0 -0 -0 -0 -0 -34 -83 -113 -0 -246 -109 -79 -88 -128 -169 -221 -179 -122 -193 -207 -156 -71 -105 -65 -89 -119 -130
-200 -57 -56 -9 -3 -3 -0 -1 -3 -1 -1 -1 -0 -1 -22 -0 -0 -0 -0 -1 -0 -0 -19 -53 -161 -109 -199 -154 -176 -217 -237 -260 -258 -159 -370 -208 -150 -66 -75 -131 -176 -261 -311
-0 -248 -19 -21 -9 -5 -4 -3 -1 -1 -1 -1 -1 -1 -0 -0 -0 -0 -1 -1 -0 -0 -0 -64 -157 -158 -0 -232 -225 -243 -290 -116 -35 -3 -379 -318 -211 -136 -154 -248 -382 -3 -0
-0 -0 -236 -20 -19 -13 -11 -3 -1 -1 -1 -1 -1 -0 -0 -0 -0 -0 -7 -1 -2 -4 -18 -113 -159 -244 -0 -240 -220 -26 -21 -38 -40 -42 -399 -358 -372 -207 -272 -12 -0 -0 -0
-0 -0 -0 -8 -16 -19 -15 -7 -1 -1 -2 -1 -1 -0 -0 -0 -0 -20 -67 -41 -47 -60 -143 -173 -0 -0 -0 -230 -254 -12 -30 -32 -31 -23 -21 -1 -7 -1 -0 -0 -0 -0 -0
-0 -0 -0 -94 -17 -23 -22 -19 -7 -2 -1 -1 -0 -0 -1 -0 -21 -93 -152 -177 -2 -0 -0 -0 -0 -0 -99 -245 -221 -23 -15 -14 -28 -33 -26 -31 -4 -2 -0 -0 -0 -0 -0
-0 -0 -0 -33 -12 -34 -30 -31 -22 -4 -3 -2 -5 -2 -3 -6 -23 -158 -249 -206 -0 -0 -0 -0 -0 -0 -168 -104 -31 -27 -9 -4 -13 -15 -0 -19 -4 -0 -0 -0 -0 -0 -0
-0 -0 -0 -0 -12 -10 -11 -16 -28 -15 -9 -9 -16 -7 -23 -111 -164 -189 -273 -0 -0 -0 -0 -0 -0 -188 -202 -16 -14 -3 -0 -0 -9 -0 -0 -0 -0 -0 -0 -0 -0 -0 -0
-0 -0 -0 -0 -42 -4 -6 -11 -14 -31 -14 -13 -14 -6 -59 -231 -0 -0 -0 -2 -0 -0 -0 -0 -247 -200 -113 -18 -12 -2 -2 -0 -0 -0 -0 -0 -0 -0 -0 -0 -0 -0 -0
-0 -0 -0 -0 -0 -26 -13 -12 -3 -8 -20 -7 -7 -3 -58 -211 -0 -0 -0 -2 -2 -1 -6 -1 -3 -7 -4 -14 -1 -3 -0 -0 -0 -0 -0 -1 -0 -0 -0 -0 -0 -0 -0
-0 -0 -0 -0 -0 -0 -24 -8 -7 -2 -14 -7 -3 -1 -34 -20 -0 -0 -0 -0 -0 -9 -1 -17 -19 -13 -0 -11 -2 -17 -0 -0 -0 -0 -20 -1 -0 -0 -0 -0 -0 -0 -0
-0 -0 -0 -0 -0 -0 -0 -1 -40 -0 -0 -2 -2 -1 -64 -132 -0 -0 -0 -0 -9 -37 -17 -24 -4 -0 -0 -3 -8 -0 -8 -3 -0 -0 -6 -0 -0 -0 -0 -0 -3 -1 -0
-0 -0 -0 -0 -0 -0 -3 -6 -0 -28 -0 -1 -0 -0 -34 -111 -175 -0 -0 -0 -15 -32 -15 -0 -8 -0 -5 -8 -0 -15 -2 -0 -0 -0 -0 -0 -2 -0 -1 -2 -0 -0 -0
-0 -0 -0 -0 -0 -0 -0 -0 -1 -0 -31 -52 -3 -25 -16 -80 -84 -0 -0 -0 -16 -18 -4 -5 -16 -0 -1 -0 -1 -3 -2 -0 -0 -0 -0 -3 -2 -2 -0 -0 -0 -0 -0
-0 -62 -0 -0 -0 -0 -0 -0 -0 -1 -1 -0 -4 -4 -4 -4 -1 -0 -0 -0 -7 -19 -0 -14 -11 -7 -0 -0 -0 -0 -1 -0 -0 -0 -0 -1 -2 -19 -1 -0 -0 -0 -0
-0 -24 -50 -56 -27 -6 -0 -0 -0 -0 -0 -0 -3 -0 -0 -1 -19 -0 -0 -0 -5 -0 -8 -4 -0 -0 -0 -0 -0 -0 -0 -0 -0 -0 -0 -0 -0 -2 -14 -2 -0 -0 -0
-0 -55 -33 -33 -23 -174 -0 -0 -0 -0 -0 -0 -0 -0 -0 -0 -1 -0 -0 -0 -4 -5 -0 -4 -0 -0 -0 -2 -0 -1 -0 -0 -0 -0 -0 -0 -0 -0 -0 -0 -1 -2 -0
-0 -35 -19 -12 -11 -198 -0 -0 -0 -4 -0 -0 -6 -0 -1 -1 -1 -0 -0 -0 -2 -1 -0 -0 -0 -0 -0 -1 -1 -0 -0 -0 -0 -0 -0 -0 -0 -0 -0 -0 -0 -0 -0
-61 -25 -22 -18 -11 -1 -0 -0 -0 -0 -2 -0 -0 -0 -0 -0 -33 -0 -0 -0 -2 -0 -0 -0 -0 -0 -2 -0 -0 -0 -0 -0 -0 -0 -0 -0 -0 -0 -0 -0 -0 -0 -0
-65 -58 -47 -18 -12 -4 -0 -0 -0 -0 -0 -0 -0 -0 -0 -0 -8 -0 -0 -0 -1 -0 -0 -0 -0 -0 -0 -0 -0 -0 -0 -0 -0 -0 -0 -0 -0 -0 -0 -0 -0 -0 -0
-13 -77 -26 -0 -0 -11 -27 -133 -158 -0 -0 -0 -0 -0 -0 -0 -15 -1 -0 -0 -0 -0 -0 -0 -0 -0 -0 -0 -0 -0 -0 -0 -0 -0 -0 -0 -0 -0 -0 -0 -0 -0 -0
-43 -33 -3 -3 -4 -2 -6 -18 -53 -49 -1 -22 -3 -50 -0 -0 -0 -0 -0 -0 -0 -0 -0 -0 -0 -0 -0 -0 -0 -0 -0 -0 -0 -0 -0 -0 -0 -0 -0 -0 -0 -0 -0
-17 -4 -0 -0 -0 -0 -48 -0 -26 -19 -4 -103 -129 -0 -0 -0 -0 -0 -0 -0 -0 -0 -0 -0 -0 -0 -0 -0 -0 -0 -0 -0 -0 -0 -0 -0 -0 -0 -0 -0 -0 -0 -0
-13 -11 -0 -0 -0 -0 -0 -0 -40 -38 -2 -0 -0 -0 -0 -0 -0 -0 -0 -0 -0 -0 -0 -0 -0 -0 -0 -0 -0 -0 -0 -0 -0 -0 -0 -0 -0 -0 -0 -0 -0 -0 -0
Wind_Speed
19 19 21 23 19 19 22 20 21 23 20 19 18 18 16 17 16 16 15 15 13 11 11 nan 14 16 15 15 nan nan 12 12 11 10 7 4 6 5 12 12 8 nan 9
21 22 23 24 23 18 22 21 22 22 24 21 21 18 16 16 17 16 15 14 14 14 nan nan nan 17 16 14 12 12 12 12 11 9 8 5 4 10 12 11 7 7 13
22 25 23 26 25 21 21 24 24 24 25 22 22 19 16 16 16 14 15 12 12 15 14 nan nan nan 16 15 13 11 11 10 8 9 8 4 5 13 12 14 15 15 15
nan 27 27 27 28 24 24 24 27 25 25 25 24 22 16 15 15 14 13 12 13 16 16 15 15 nan nan 13 12 10 8 7 5 nan nan 7 10 18 18 19 18 nan nan
nan nan 29 29 29 28 26 24 28 27 27 26 26 23 18 17 16 14 14 16 17 16 17 17 16 16 nan nan 10 8 7 nan nan nan nan nan 7 17 21 19 nan nan nan
nan nan nan 29 30 31 30 29 27 28 26 27 27 25 24 19 22 21 21 20 21 18 18 16 15 nan nan nan 9 nan nan nan nan nan nan nan nan 19 19 nan nan nan nan
nan nan nan 28 32 32 34 31 29 28 27 26 29 26 25 26 27 28 26 25 22 19 nan nan nan nan nan nan 7 nan nan nan nan nan nan nan nan nan nan nan nan nan nan
nan nan nan 39 31 36 35 34 32 30 30 29 32 29 30 34 36 32 27 nan nan nan nan nan nan nan nan nan 10 nan nan nan nan nan nan nan nan nan nan nan nan nan nan
nan nan nan nan 40 34 37 39 37 34 33 32 34 33 37 39 40 34 nan nan nan nan nan nan nan nan 14 13 nan nan nan nan nan nan nan nan nan nan nan nan nan nan nan
nan nan nan nan 39 45 44 39 41 40 38 38 38 41 44 43 45 38 nan nan nan nan nan nan nan 17 18 nan nan nan nan nan nan nan nan nan nan nan nan nan nan nan nan
nan nan nan nan nan 44 49 51 45 44 44 43 46 48 45 nan nan nan nan nan nan nan nan nan nan 21 nan nan nan nan nan nan nan nan nan nan nan nan nan nan nan nan nan
nan nan nan nan nan 45 50 54 56 54 52 53 51 49 nan nan nan nan nan nan nan nan nan nan nan nan nan nan nan nan nan nan nan nan nan nan nan nan nan nan nan nan nan
nan nan nan nan nan nan 50 53 58 62 60 56 54 51 48 nan nan nan nan nan nan nan nan nan nan nan nan nan nan nan nan nan nan nan nan nan nan nan nan nan nan nan nan
nan nan nan nan nan nan nan nan 63 63 66 60 56 54 nan nan nan nan nan nan nan nan nan nan nan nan nan nan nan nan nan nan nan nan nan nan nan nan nan nan nan nan nan
nan nan nan nan nan nan nan nan 63 69 72 81 57 55 nan nan nan nan nan nan nan nan nan nan nan nan nan nan nan nan nan nan nan nan nan nan nan nan nan nan nan nan nan
nan nan nan nan nan nan nan nan nan 69 nan nan 71 nan 61 nan nan nan nan nan nan nan nan nan nan nan nan nan nan nan nan nan nan nan nan nan nan nan nan nan nan nan nan
nan nan nan nan nan nan nan nan nan nan nan nan nan nan nan nan 54 nan nan nan nan nan nan nan nan nan nan nan nan nan nan nan nan nan nan nan nan nan nan nan nan nan nan
nan nan nan nan nan nan nan nan nan nan nan nan nan nan nan nan nan nan nan nan nan nan nan nan nan nan nan nan nan nan nan nan nan nan nan nan nan nan nan nan nan nan nan
nan nan nan 47 nan nan nan nan nan nan nan nan nan nan nan nan nan nan nan nan nan nan nan nan nan nan nan nan nan nan nan nan nan nan nan nan nan nan nan nan nan nan nan
nan nan 40 40 46 nan nan nan nan nan nan nan nan nan nan nan nan nan nan nan nan nan nan nan nan nan nan nan nan nan nan nan nan nan nan nan nan nan nan nan nan nan nan
nan 37 30 31 nan nan nan nan nan nan nan nan nan nan nan nan nan nan nan nan nan nan nan nan nan nan nan nan nan nan nan nan nan nan nan nan nan nan nan nan nan nan nan
nan 29 nan nan nan nan nan nan nan nan nan nan nan nan nan nan nan nan nan nan nan nan nan nan nan nan nan nan nan nan nan nan nan nan nan nan nan nan nan nan nan nan nan
nan nan 24 23 nan nan nan nan nan nan nan nan nan nan nan nan nan nan nan nan nan nan nan nan nan nan nan nan nan nan nan nan nan nan nan nan nan nan nan nan nan nan nan
nan nan nan nan nan nan nan nan nan nan nan nan nan nan nan nan nan nan nan nan nan nan nan nan nan nan nan nan nan nan nan nan nan nan nan nan nan nan nan nan nan nan nan
22 nan nan nan nan nan nan nan nan nan nan nan nan nan nan nan nan nan nan nan nan nan nan nan nan nan nan nan nan nan nan nan nan nan nan nan nan nan nan nan nan nan nan
23 nan nan nan nan nan nan nan nan nan nan nan nan nan nan nan nan nan nan nan nan nan nan nan nan nan nan nan nan nan nan nan nan nan nan nan nan nan nan nan nan nan nan
Wind_Direction
247 254 268 268 269 255 256 261 266 267 259 255 261 264 267 271 266 270 268 267 258 257 248 nan 234 233 236 240 nan nan 264 257 264 260 254 271 292 292 314 299 290 nan 278
266 266 269 268 266 255 255 257 264 260 260 253 257 261 265 273 273 271 265 265 264 260 nan nan nan 233 236 241 247 262 272 271 279 274 269 256 291 280 297 288 297 302 285
267 276 266 270 264 257 254 251 262 263 261 253 261 261 258 265 272 269 269 264 258 257 252 nan nan nan 235 243 252 266 276 284 293 288 286 307 324 300 298 290 286 285 277
nan 262 268 270 268 261 252 256 258 264 260 256 247 248 257 258 265 272 271 262 256 255 250 245 238 nan nan 248 256 266 274 286 304 nan nan 285 293 297 289 282 272 nan nan
nan nan 253 270 267 266 257 253 259 259 261 257 256 250 249 255 249 258 254 257 253 251 251 246 246 247 nan nan 255 257 248 nan nan nan nan nan 270 277 271 268 nan nan nan
nan nan nan 270 268 265 263 254 257 260 259 261 258 253 250 252 257 252 248 235 234 240 250 252 253 nan nan nan 254 nan nan nan nan nan nan nan nan 264 271 nan nan nan nan
nan nan nan 261 267 262 264 259 251 259 259 262 262 254 250 256 258 249 241 233 229 232 nan nan nan nan nan nan 250 nan nan nan nan nan nan nan nan nan nan nan nan nan nan
nan nan nan 235 265 263 262 261 250 253 254 251 259 258 254 251 252 248 241 nan nan nan nan nan nan nan nan nan 240 nan nan nan nan nan nan nan nan nan nan nan nan nan nan
nan nan nan nan 240 260 255 258 255 247 249 245 247 256 255 250 248 249 nan nan nan nan nan nan nan nan 244 254 nan nan nan nan nan nan nan nan nan nan nan nan nan nan nan
nan nan nan nan 244 243 244 247 250 250 245 247 246 251 251 250 244 242 nan nan nan nan nan nan nan 243 242 nan nan nan nan nan nan nan nan nan nan nan nan nan nan nan nan
nan nan nan nan nan 244 246 237 240 246 246 243 243 246 248 nan nan nan nan nan nan nan nan nan nan 242 nan nan nan nan nan nan nan nan nan nan nan nan nan nan nan nan nan
nan nan nan nan nan 244 245 242 236 235 237 239 239 242 nan nan nan nan nan nan nan nan nan nan nan nan nan nan nan nan nan nan nan nan nan nan nan nan nan nan nan nan nan
nan nan nan nan nan nan 245 242 239 234 233 233 240 239 235 nan nan nan nan nan nan nan nan nan nan nan nan nan nan nan nan nan nan nan nan nan nan nan nan nan nan nan nan
nan nan nan nan nan nan nan nan 238 231 232 229 235 239 nan nan nan nan nan nan nan nan nan nan nan nan nan nan nan nan nan nan nan nan nan nan nan nan nan nan nan nan nan
nan nan nan nan nan nan nan nan 235 234 225 226 226 235 nan nan nan nan nan nan nan nan nan nan nan nan nan nan nan nan nan nan nan nan nan nan nan nan nan nan nan nan nan
nan nan nan nan nan nan nan nan nan 226 nan nan 222 nan 233 nan nan nan nan nan nan nan nan nan nan nan nan nan nan nan nan nan nan nan nan nan nan nan nan nan nan nan nan
nan nan nan nan nan nan nan nan nan nan nan nan nan nan nan nan 233 nan nan nan nan nan nan nan nan nan nan nan nan nan nan nan nan nan nan nan nan nan nan nan nan nan nan
nan nan nan nan nan nan nan nan nan nan nan nan nan nan nan nan nan nan nan nan nan nan nan nan nan nan nan nan nan nan nan nan nan nan nan nan nan nan nan nan nan nan nan
nan nan nan 275 nan nan nan nan nan nan nan nan nan nan nan nan nan nan nan nan nan nan nan nan nan nan nan nan nan nan nan nan nan nan nan nan nan nan nan nan nan nan nan
nan nan 286 269 253 nan nan nan nan nan nan nan nan nan nan nan nan nan nan nan nan nan nan nan nan nan nan nan nan nan nan nan nan nan nan nan nan nan nan nan nan nan nan
nan 297 293 284 nan nan nan nan nan nan nan nan nan nan nan nan nan nan nan nan nan nan nan nan nan nan nan nan nan nan nan nan nan nan nan nan nan nan nan nan nan nan nan
nan 302 nan nan nan nan nan nan nan nan nan nan nan nan nan nan nan nan nan nan nan nan nan nan nan nan nan nan nan nan nan nan nan nan nan nan nan nan nan nan nan nan nan
nan nan 308 279 nan nan nan nan nan nan nan nan nan nan nan nan nan nan nan nan nan nan nan nan nan nan nan nan nan nan nan nan nan nan nan nan nan nan nan nan nan nan nan
nan nan nan nan nan nan nan nan nan nan nan nan nan nan nan nan nan nan nan nan nan nan nan nan nan nan nan nan nan nan nan nan nan nan nan nan nan nan nan nan nan nan nan
312 nan nan nan nan nan nan nan nan nan nan nan nan nan nan nan nan nan nan nan nan nan nan nan nan nan nan nan nan nan nan nan nan nan nan nan nan nan nan nan nan nan nan
320 nan nan nan nan nan nan nan nan nan nan nan nan nan nan nan nan nan nan nan nan nan nan nan nan nan nan nan nan nan nan nan nan nan nan nan nan nan nan nan nan nan nan